Regional Weather Roundup
Issued by NWS Green Bay, WI

Home | Current Version | Previous Version | Graphics & Text | Print | Product List | Glossary Off
Versions: 1 2 3 4 5 6 7 8 9 10 11 12 13 14 15 16 17 18 19 20 21 22 23 24 25 26 27 28 29 30 31 32 33 34 35 36 37 38 39 40 41 42 43 44 45 46 47 48 49 50

245
ASUS43 KGRB 230201
RWRGRB

NORTH-CENTRAL AND NORTHEAST WISCONSIN REGIONAL WEATHER ROUNDUP
NATIONAL WEATHER SERVICE GREEN BAY WI
900 PM CDT TUE AUG 22 2017

WIZ005-009-010>012-018-019-230300-
NORTH CENTRAL WISCONSIN

CITY           SKY/WX    TMP DP  RH WIND       PRES   REMARKS
IRONWOOD       CLOUDY    56  54  93 W6        29.94S
MANITOWISH WTR NOT AVBL
ARBOR VITAE    NOT AVBL
EAGLE RIVER    NOT AVBL
LAND O LAKES   NOT AVBL
RHINELANDER    PTCLDY    58  51  78 W9        29.95S
PHILLIPS       CLOUDY    59  52  78 W5        29.97S
ANTIGO         NOT AVBL
TOMAHAWK       NOT AVBL
MERRILL        NOT AVBL
$$

WIZ013-073-230300-
NORTHEAST WISCONSIN

CITY           SKY/WX    TMP DP  RH WIND       PRES   REMARKS
IRON MOUNTAIN  CLEAR     59  50  72 W7        29.88S
MARINETTE      CLEAR     63  51  65 VRB3      29.90R
$$

WIZ017-030-035>037-045-230300-
CENTRAL WISCONSIN

CITY           SKY/WX    TMP DP  RH WIND       PRES   REMARKS
MEDFORD        NOT AVBL
WAUSAU         CLEAR     63  49  60 NW9       29.95S
MOSINEE        PTCLDY    61  48  63 W8        29.98R
MARSHFIELD     CLEAR     59  48  67 W6        29.98S
WISC RAPIDS    CLEAR     62  50  64 W5        29.99R
STEVENS POINT  NOT AVBL
WAUPACA        NOT AVBL
SHAWANO        NOT AVBL
CLINTONVILLE   NOT AVBL
WAUTOMA        CLEAR     63  51  65 W5        29.98R
$$

WIZ038-039-048-051-230300-
FOX VALLEY

CITY           SKY/WX    TMP DP  RH WIND       PRES   REMARKS
NWS GREEN BAY  CLEAR     63  52  67 W7        29.93R
APPLETON       PTCLDY    63  45  51 NW7       29.94R
OSHKOSH        CLEAR     64  49  57 W6        29.95R
FOND DU LAC    CLEAR     64  48  56 W7        29.96R
$$

WIZ022-050-052-230300-
EAST CENTRAL WISCONSIN

CITY           SKY/WX    TMP DP  RH WIND       PRES   REMARKS
EPHRAIM        NOT AVBL
WASHINGTON ISL NOT AVBL
STURGEON BAY   CLEAR     65  53  65 W6        29.91R
MANITOWOC      NOT AVBL
SHEBOYGAN      CLEAR     63  54  72 W6        29.94R
$$

LMZ563-521-522-541>543-230300-
LAKESHORE

STATION/POSITION TIME  TEMP    WIND        PRES    VSBY  WAVE
                       AIR SEA DIR/SP/G                  HT/PER
                 (UTC) (F)     (DEG/KT/KT) (MB)    (MI)  (FT/S)
SHEBOYGAN LKSHOR 0100   70     270/  8/ 10 1012.7R
KEWAUNEE LKSHORE 0130   65     310/  3/  5 1011.9R
NORTHPORT PIER   0140   67     280/  9/ 15 1011.2R
N MID LAKE BUOY  0050   68 67  290/ 17/ 21 1010.6R         3/ 4
S GREEN BAY BUOY 0130   69 71  290/ 14/ 16 1012.2R
SISTER BAY LKSHO 0118   68     310/ 21/ 25   N/A
MENOMINEE LKSHOR 0130   66     290/  6/ 10 1011.9R
$$




USA.gov is the U.S. government's official web portal to all federal, state and local government web resources and services.